Wellsville, NY

9:37 PM EST on January 19, 2018 (GMT -0500)
Wellsville Municipal-Tarantine

Weather History for KELZ - February, 2014

Change the Weather History Date:

Monday, February 24, 2014

  Actual Average (KDSV) Record (KDSV)
Temperature  
Mean Temperature 18 °F -  
Max Temperature 21 °F 39 °F 75 °F (2017)
Min Temperature 15 °F 20 °F -11 °F (2015)
Degree Days  
Heating Degree Days 47    
Moisture  
Dew Point 8 °F    
Average Humidity 66    
Maximum Humidity 81    
Minimum Humidity 50    
Precipitation  
Precipitation 0.00 in - - ()
Sea Level Pressure  
Sea Level Pressure 29.94 in    
Wind  
Wind Speed 16 mph (West)    
Max Wind Speed 31 mph    
Max Gust Speed 44 mph    
Visibility 5 miles    
Events Snow    
Averages and records for this station are not official NWS values.
T = Trace of Precipitation, MM = Missing Value Source: NWS Daily Summary

Daily Weather History Graph

Daily Weather History Graph

Search for Another Location

Airport or City:

Trip Planner

Search our weather history database for the weather conditions in past years. The results will help you decide how hot, cold, wet, or windy it might be!

Date:

Astronomy

Feb. 24, 2014 Rise Set
Actual Time 6:54 AM EST 5:55 PM EST
Civil Twilight 6:26 AM EST 6:24 PM EST
Nautical Twilight 5:54 AM EST 6:56 PM EST
Astronomical Twilight 5:21 AM EST 7:29 PM EST
Moon 2:55 AM EST (2/24) 12:51 PM EST (2/24)
Length of Visible Light 11h 57m
Length of Day
11h 01m
Waning Crescent, 28% of the Moon is Illuminated
Feb 24
Waning Crescent
Mar 1
New
Mar 8
First Quarter
Mar 16
Full
Mar 23
Last Quarter

Hourly Weather History & Observations

Time (EST) Temp. Windchill Dew Point Humidity Pressure Visibility Wind Dir Wind Speed Gust Speed Precip Events Conditions
12:56 AM 21.0 °F 8.6 °F 9.0 °F 60% 29.93 in 10.0 mi West 12.7 mph 23.0 mph N/A   Scattered Clouds
1:56 AM 19.9 °F 4.8 °F 6.1 °F 55% 29.92 in 10.0 mi WNW 18.4 mph 32.2 mph N/A   Mostly Cloudy
2:56 AM 19.0 °F 1.6 °F 6.1 °F 57% 29.92 in 10.0 mi WNW 24.2 mph 32.2 mph N/A   Mostly Cloudy
3:56 AM 17.1 °F 1.0 °F 5.0 °F 59% 29.93 in 10.0 mi West 18.4 mph 32.2 mph N/A   Mostly Cloudy
4:56 AM 16.0 °F 1.7 °F 6.1 °F 65% 29.94 in 10.0 mi West 13.8 mph 24.2 mph N/A   Overcast
5:56 AM 17.1 °F 4.3 °F 5.0 °F 59% 29.94 in 10.0 mi West 11.5 mph - N/A   Overcast
6:56 AM 17.1 °F 5.8 °F 6.1 °F 62% 29.93 in 7.0 mi West 9.2 mph 19.6 mph 0.00 in Snow Light Snow
7:16 AM 17.1 °F 5.8 °F 8.1 °F 68% 29.85 in 2.5 mi West 9.2 mph - 0.00 in Snow Light Snow
7:27 AM 16.0 °F 4.4 °F 9.0 °F 74% 29.85 in 1.2 mi West 9.2 mph - 0.00 in Snow Light Snow
7:43 AM 16.0 °F 4.4 °F 10.9 °F 81% 29.86 in 0.8 mi WNW 9.2 mph - 0.00 in Snow Light Snow
7:51 AM 15.8 °F 2.7 °F 10.4 °F 79% 29.86 in 0.5 mi WNW 11.5 mph - 0.00 in Snow Snow
7:56 AM 16.0 °F 1.7 °F 10.9 °F 81% 29.95 in 0.2 mi WNW 13.8 mph 25.3 mph 0.00 in Snow Heavy Snow
8:03 AM 16.0 °F 2.3 °F 10.0 °F 77% 29.86 in 1.0 mi West 12.7 mph 25.3 mph 0.00 in Snow Light Snow
8:08 AM 17.1 °F 4.3 °F 10.0 °F 74% 29.86 in 3.0 mi West 11.5 mph 25.3 mph 0.00 in Snow Light Snow
8:29 AM 17.1 °F 2.5 °F 10.0 °F 74% 29.87 in 2.5 mi West 15.0 mph - 0.00 in Snow Light Snow
8:39 AM 18.0 °F 2.6 °F 10.0 °F 71% 29.87 in 5.0 mi WNW 17.3 mph 26.5 mph 0.00 in Snow Light Snow
8:56 AM 18.0 °F 3.1 °F 8.1 °F 65% 29.96 in 9.0 mi West 16.1 mph 25.3 mph 0.00 in   Overcast
9:56 AM 19.0 °F 2.7 °F 6.1 °F 57% 29.96 in 9.0 mi West 20.7 mph 31.1 mph 0.00 in   Overcast
10:20 AM 19.0 °F 2.7 °F 9.0 °F 65% 29.88 in 4.0 mi WNW 20.7 mph - 0.00 in Snow Light Snow
10:40 AM 19.0 °F 3.2 °F 7.0 °F 59% 29.88 in 9.0 mi WNW 19.6 mph 27.6 mph 0.00 in   Overcast
10:56 AM 19.0 °F 4.0 °F 7.0 °F 59% 29.97 in 6.0 mi West 17.3 mph 26.5 mph 0.00 in Snow Light Snow
11:18 AM 19.9 °F 7.9 °F 8.1 °F 60% 29.88 in 7.0 mi West 11.5 mph 25.3 mph 0.00 in Snow Light Snow
11:28 AM 21.0 °F 5.7 °F 7.0 °F 55% 29.88 in 9.0 mi WNW 19.6 mph 25.3 mph 0.00 in   Mostly Cloudy
11:45 AM 19.0 °F 4.0 °F 9.0 °F 65% 29.88 in 1.2 mi West 17.3 mph 28.8 mph 0.00 in Snow Light Snow
11:56 AM 19.0 °F 4.5 °F 9.0 °F 65% 29.98 in 3.0 mi West 16.1 mph 28.8 mph 0.00 in Snow Light Snow
11:58 AM 19.0 °F 3.2 °F 9.0 °F 65% 29.88 in 1.8 mi West 19.6 mph 29.9 mph 0.00 in Snow Light Snow
12:07 PM 17.1 °F -1.7 °F 10.0 °F 74% 29.88 in 0.5 mi WNW 26.5 mph 34.5 mph 0.00 in Snow Snow
12:17 PM 18.0 °F 2.2 °F 9.0 °F 68% 29.88 in 2.0 mi WNW 18.4 mph 33.4 mph 0.00 in Snow Light Snow
12:25 PM 19.9 °F 3.2 °F 9.0 °F 62% 29.87 in 8.0 mi West 23.0 mph 29.9 mph 0.00 in   Overcast
12:42 PM 21.0 °F 5.0 °F 8.1 °F 57% 29.87 in 8.0 mi West 21.9 mph 29.9 mph 0.00 in Snow Light Snow
12:56 PM 19.9 °F 1.0 °F 6.1 °F 55% 29.97 in 10.0 mi WNW 31.1 mph 39.1 mph 0.00 in   Overcast
1:16 PM 19.0 °F 3.2 °F 7.0 °F 59% 29.88 in 1.8 mi NW 19.6 mph 43.7 mph 0.00 in Snow Light Snow
1:32 PM 18.0 °F -1.4 °F 7.0 °F 62% 29.88 in 3.0 mi WNW 29.9 mph 43.7 mph 0.00 in Snow Light Snow
1:38 PM 18.0 °F -1.1 °F 6.1 °F 60% 29.88 in 2.5 mi West 28.8 mph 43.7 mph 0.00 in Snow Light Snow
1:47 PM 19.0 °F 4.0 °F 7.0 °F 59% 29.88 in 3.0 mi West 17.3 mph 36.8 mph 0.00 in Snow Light Snow
1:56 PM 19.0 °F - 7.0 °F 59% 29.99 in 5.0 mi North - - 0.00 in Snow Light Snow
2:05 PM 19.9 °F - 5.0 °F 52% 29.89 in 9.0 mi North - - 0.00 in   Overcast
2:26 PM 17.1 °F - 6.1 °F 62% 29.90 in 2.5 mi North - - 0.00 in Snow Light Snow
2:42 PM 17.1 °F - 6.1 °F 62% 29.90 in 3.0 mi North - - 0.00 in Snow Light Snow
2:51 PM 17.6 °F - 6.8 °F 63% 29.90 in 5.0 mi North - - 0.00 in Snow Light Snow
2:56 PM 17.1 °F - 5.0 °F 59% 30.01 in 7.0 mi North - - 0.00 in Snow Light Snow
3:07 PM 17.1 °F - 3.9 °F 56% 29.90 in 8.0 mi North - - 0.00 in Snow Light Snow
3:56 PM 19.0 °F - 3.0 °F 50% 30.02 in 10.0 mi North - - 0.00 in   Overcast
4:56 PM 17.1 °F - 7.0 °F 65% 30.05 in 6.0 mi North - - 0.00 in Snow Light Snow
5:09 PM 17.1 °F - 7.0 °F 65% 29.94 in 8.0 mi North - - 0.00 in   Overcast
5:48 PM 16.0 °F - 8.1 °F 71% 29.96 in 1.8 mi North - - 0.00 in Snow Light Snow
5:56 PM 16.0 °F - 9.0 °F 74% 30.07 in 1.0 mi North - - 0.00 in Snow Light Snow
6:11 PM 16.0 °F - 8.1 °F 71% 29.96 in 3.0 mi North - - 0.00 in Snow Light Snow
6:56 PM 16.0 °F - 9.0 °F 74% 30.09 in 7.0 mi North - - 0.00 in Snow Light Snow
7:14 PM 16.0 °F - 9.0 °F 74% 29.98 in 2.5 mi North - - 0.00 in Snow Light Snow
7:34 PM 16.0 °F - 9.0 °F 74% 29.98 in 3.0 mi North - - 0.00 in Snow Light Snow
7:56 PM 16.0 °F - 9.0 °F 74% 30.09 in 4.0 mi North - - 0.00 in Snow Light Snow
8:01 PM 16.0 °F - 10.0 °F 77% 29.97 in 1.8 mi North - - 0.00 in Snow Light Snow
8:22 PM 16.0 °F - 10.0 °F 77% 29.97 in 2.5 mi North - - 0.00 in Snow Light Snow
8:30 PM 16.0 °F - 10.0 °F 77% 29.97 in 3.0 mi North - - 0.00 in Snow Light Snow
8:56 PM 16.0 °F - 9.0 °F 74% 30.08 in 4.0 mi North - - 0.00 in Snow Light Snow
9:56 PM 16.0 °F - 8.1 °F 71% 30.07 in 6.0 mi North - - 0.00 in Snow Light Snow
10:56 PM 15.1 °F - 7.0 °F 70% 30.06 in 9.0 mi North - - 0.00 in   Overcast
11:14 PM 15.1 °F - 7.0 °F 70% 29.95 in 10.0 mi North - - N/A   Scattered Clouds
11:42 PM 15.1 °F - 8.1 °F 74% 29.95 in 10.0 mi North - - N/A   Mostly Cloudy
11:56 PM 15.1 °F - 8.1 °F 74% 30.06 in 10.0 mi North - - N/A   Mostly Cloudy